| time (UTC) | temp C | wind direction | speed KPH | gust KPH | rain 1hr cm | rain 24hr cm | rain mn cm | humidity % | barometer mb |
| 20260506110048 | 24 | 171 | 0.0 | 1.6 | 0.00 | 0.00 | 0.00 | 78 | 1006.7 |
| 20260506104551 | 24 | 171 | 0.0 | 3.2 | 0.00 | 0.00 | 0.00 | 78 | 1006.7 |
| 20260506103052 | 24 | 171 | 0.0 | 1.6 | 0.00 | 0.00 | 0.00 | 78 | 1006.7 |
| 20260506101546 | 24 | 171 | 0.0 | 3.2 | 0.00 | 0.00 | 0.00 | 77 | 1006.7 |
| 20260506100100 | 24 | 171 | 0.0 | 3.2 | 0.00 | 0.00 | 0.00 | 77 | 1006.6 |
| 20260506094542 | 25 | 171 | 0.0 | 3.2 | 0.00 | 0.00 | 0.00 | 77 | 1006.4 |
| 20260506093042 | 25 | 171 | 0.0 | 4.8 | 0.00 | 0.00 | 0.00 | 76 | 1006.3 |
| 20260506091542 | 25 | 171 | 0.0 | 4.8 | 0.00 | 0.00 | 0.00 | 76 | 1006.2 |
| 20260506090041 | 25 | 171 | 1.6 | 4.8 | 0.00 | 0.00 | 0.00 | 76 | 1006.3 |
| 20260506084542 | 25 | 171 | 1.6 | 3.2 | 0.00 | 0.00 | 0.00 | 76 | 1006.3 |
| 20260506083038 | 25 | 171 | 1.6 | 3.2 | 0.00 | 0.00 | 0.00 | 76 | 1006.4 |
| 20260506081535 | 25 | 171 | 0.0 | 3.2 | 0.00 | 0.00 | 0.00 | 76 | 1006.7 |
| 20260506073031 | 25 | 171 | 1.6 | 3.2 | 0.00 | 0.00 | 0.00 | 75 | 1007.2 |
| 20260506071530 | 25 | 171 | 0.0 | 6.4 | 0.00 | 0.00 | 0.00 | 75 | 1007.2 |
| 20260506061528 | 25 | 187 | 1.6 | 4.8 | 0.00 | 0.00 | 0.00 | 75 | 1007.3 |
| 20260506044528 | 25 | 187 | 1.6 | 4.8 | 0.00 | 0.00 | 0.00 | 74 | 1007.3 |
| 20260506043123 | 25 | 187 | 1.6 | 4.8 | 0.00 | 0.00 | 0.00 | 73 | 1007.5 |
| 20260506041521 | 25 | 169 | 1.6 | 4.8 | 0.00 | 0.00 | 0.00 | 73 | 1007.3 |
| 20260506040020 | 25 | 168 | 1.6 | 4.8 | 0.00 | 0.00 | 0.00 | 73 | 1007.3 |
| 20260506034520 | 26 | 170 | 0.0 | 4.8 | 0.00 | 0.00 | 0.00 | 72 | 1007.0 |
| 20260506033028 | 26 | 170 | 0.0 | 4.8 | 0.00 | 0.00 | 0.00 | 72 | 1007.0 |
| 20260506031530 | 26 | 166 | 3.2 | 8.0 | 0.00 | 0.00 | 0.00 | 71 | 1006.9 |
| 20260506030041 | 26 | 152 | 0.0 | 4.8 | 0.00 | 0.00 | 0.00 | 71 | 1006.8 |
| 20260506024525 | 26 | 187 | 0.0 | 4.8 | 0.00 | 0.00 | 0.00 | 71 | 1006.4 |
| 20260506023018 | 26 | 181 | 3.2 | 6.4 | 0.00 | 0.00 | 0.00 | 70 | 1006.2 |
| 20260506021519 | 26 | 180 | 1.6 | 4.8 | 0.00 | 0.00 | 0.00 | 70 | 1006.0 |
| 20260506020016 | 26 | 180 | 1.6 | 3.2 | 0.00 | 0.00 | 0.00 | 69 | 1005.8 |
| 20260506014516 | 26 | 180 | 1.6 | 4.8 | 0.00 | 0.00 | 0.00 | 69 | 1005.7 |
| 20260506013016 | 26 | 178 | 1.6 | 4.8 | 0.00 | 0.00 | 0.00 | 68 | 1005.5 |
| 20260506011524 | 26 | 173 | 1.6 | 4.8 | 0.00 | 0.00 | 0.00 | 68 | 1005.2 |
| 20260506010015 | 27 | 188 | 1.6 | 4.8 | 0.00 | 0.00 | 0.00 | 67 | 1005.0 |
| 20260506004525 | 27 | 190 | 0.0 | 4.8 | 0.00 | 0.00 | 0.00 | 66 | 1005.0 |
| 20260506003017 | 27 | 155 | 1.6 | 4.8 | 0.00 | 0.00 | 0.00 | 66 | 1005.0 |
| 20260506001515 | 27 | 174 | 1.6 | 6.4 | 0.00 | 0.00 | 0.00 | 66 | 1004.7 |
| 20260506000018 | 27 | 187 | 1.6 | 6.4 | 0.00 | 0.00 | 0.00 | 66 | 1004.9 |
| 20260505234513 | 27 | 175 | 1.6 | 9.7 | 0.00 | 0.00 | 0.00 | 66 | 1004.7 |
| 20260505233012 | 27 | 178 | 1.6 | 4.8 | 0.00 | 0.00 | 0.00 | 66 | 1004.8 |
| 20260505231518 | 27 | 178 | 1.6 | 4.8 | 0.00 | 0.00 | 0.00 | 65 | 1004.8 |
| 20260505230013 | 28 | 173 | 3.2 | 6.4 | 0.00 | 0.00 | 0.00 | 64 | 1004.8 |
| 20260505224510 | 28 | 183 | 1.6 | 8.0 | 0.00 | 0.00 | 0.00 | 64 | 1004.5 |
| 20260505223007 | 28 | 175 | 1.6 | 8.0 | 0.00 | 0.00 | 0.00 | 65 | 1004.7 |
| 20260505221506 | 28 | 200 | 0.0 | 6.4 | 0.00 | 0.00 | 0.00 | 66 | 1004.7 |
| 20260505220005 | 28 | 221 | 0.0 | 4.8 | 0.00 | 0.00 | 0.00 | 66 | 1004.9 |
| 20260505214501 | 28 | 180 | 0.0 | 4.8 | 0.00 | 0.00 | 0.00 | 66 | 1005.1 |
| 20260505213118 | 28 | 180 | 1.6 | 6.4 | 0.00 | 0.00 | 0.00 | 65 | 1005.3 |
| 20260505211559 | 28 | 186 | 0.0 | 3.2 | 0.00 | 0.00 | 0.00 | 66 | 1005.4 |
| 20260505210106 | 28 | 186 | 1.6 | 4.8 | 0.00 | 0.00 | 0.00 | 65 | 1005.6 |
| 20260505204554 | 28 | 184 | 0.0 | 4.8 | 0.00 | 0.00 | 0.00 | 65 | 1005.7 |
| 20260505203056 | 28 | 167 | 1.6 | 6.4 | 0.00 | 0.00 | 0.00 | 64 | 1005.9 |
| 20260505201552 | 28 | 207 | 1.6 | 6.4 | 0.00 | 0.00 | 0.00 | 65 | 1006.1 |
| 20260505200048 | 28 | 156 | 1.6 | 6.4 | 0.00 | 0.00 | 0.00 | 66 | 1006.3 |
| 20260505194550 | 28 | 36 | 0.0 | 6.4 | 0.00 | 0.00 | 0.00 | 66 | 1006.6 |
| 20260505193102 | 28 | 173 | 1.6 | 8.0 | 0.00 | 0.00 | 0.00 | 66 | 1006.5 |
| 20260505191542 | 27 | 194 | 1.6 | 6.4 | 0.00 | 0.00 | 0.00 | 68 | 1006.8 |
| 20260505190042 | 27 | 172 | 1.6 | 6.4 | 0.00 | 0.00 | 0.00 | 67 | 1006.9 |
| 20260505184537 | 27 | 119 | 0.0 | 4.8 | 0.00 | 0.00 | 0.00 | 69 | 1007.0 |
| 20260505183035 | 27 | 182 | 0.0 | 4.8 | 0.00 | 0.00 | 0.00 | 69 | 1007.1 |
| 20260505181534 | 27 | 220 | 1.6 | 4.8 | 0.00 | 0.00 | 0.00 | 69 | 1007.1 |
| 20260505180038 | 26 | 175 | 1.6 | 4.8 | 0.00 | 0.00 | 0.00 | 70 | 1007.2 |
| 20260505174530 | 26 | 172 | 1.6 | 6.4 | 0.00 | 0.00 | 0.00 | 70 | 1007.3 |
| 20260505173028 | 26 | 182 | 0.0 | 4.8 | 0.00 | 0.00 | 0.00 | 72 | 1007.6 |
| 20260505171528 | 26 | 176 | 1.6 | 4.8 | 0.00 | 0.00 | 0.00 | 72 | 1007.7 |
| 20260505170024 | 25 | 176 | 0.0 | 4.8 | 0.00 | 0.00 | 0.00 | 73 | 1007.6 |
| 20260505164524 | 25 | 176 | 0.0 | 3.2 | 0.00 | 0.00 | 0.00 | 73 | 1007.8 |
| 20260505163030 | 25 | 164 | 0.0 | 6.4 | 0.00 | 0.00 | 0.00 | 72 | 1007.7 |
| 20260505161522 | 25 | 166 | 1.6 | 6.4 | 0.00 | 0.00 | 0.00 | 72 | 1007.6 |
| 20260505153023 | 25 | 19 | 0.0 | 4.8 | 0.00 | 0.00 | 0.00 | 72 | 1007.6 |
| 20260505151519 | 25 | 204 | 0.0 | 3.2 | 0.00 | 0.00 | 0.00 | 73 | 1007.4 |
| 20260505124504 | 23 | 207 | 1.6 | 4.8 | 0.00 | 0.00 | 0.00 | 76 | 1006.6 |
| 20260505123002 | 22 | 207 | 1.6 | 3.2 | 0.00 | 0.00 | 0.00 | 76 | 1006.9 |
| 20260505121502 | 22 | 207 | 0.0 | 4.8 | 0.00 | 0.00 | 0.00 | 76 | 1006.9 |
| 20260505120002 | 22 | 207 | 0.0 | 4.8 | 0.00 | 0.00 | 0.00 | 76 | 1006.6 |
| 20260505114600 | 22 | 207 | 1.6 | 3.2 | 0.00 | 0.00 | 0.00 | 76 | 1006.6 |
| 20260505113107 | 22 | 207 | 0.0 | 3.2 | 0.00 | 0.00 | 0.00 | 76 | 1006.7 |
| 20260505111557 | 22 | 207 | 0.0 | 3.2 | 0.00 | 0.00 | 0.00 | 76 | 1006.6 |